Home   Weather   28°01'N, 81°43'W   Past weeks
Flag for USA

Past Weather in 28°01'N, 81°43'W, USA — Yesterday and Last 2 Weeks

Now
90 °F

Partly sunny.


Feels Like: 91 °F
Forecast: 93 / 71 °F
Wind: 5 mph from Southeast

Location: Lakeland Regional

Current Time: May 21, 2019 at 5:16:51 pm

Latest Report: May 21, 2019 at 3:50 pm


Visibility: 10 mi

Pressure: 29.94 "Hg

Humidity: 43%

Dew Point: 64 °F

Location of 28°01'N, 81°43'WLocation

Past Weather in 28°01'N, 81°43'W — Graph

°F

28°01'N, 81°43'W Temperature Yesterday

Maximum temperature yesterday: 91 °F (at 4:50 pm)
Minimum temperature yesterday: 72 °F (at 4:15 am)
Average temperature yesterday: 80 °F

High & Low Weather Summary for the Past Weeks

 TemperatureHumidityPressure
High91 °F (May 20, 4:50 pm)100% (May 10, 6:50 am)30.08 "Hg (May 10, 6:50 am)
Low64 °F (May 7, 5:55 am)29% (May 19, 4:50 pm)29.86 "Hg (May 12, 4:50 pm)
Average78 °F71%29.99 "Hg
* Reported May 6 3:50 pm — May 21 3:50 pm, 28°01'N, 81°43'W. Weather by CustomWeather, © 2019

Note: Actual official high and low records may vary slightly from our data, if they occured in-between our weather recording intervals... More about our weather records

Advertising

28°01'N, 81°43'W Weather History for the Previous 24 Hours

Scroll right to see more
 ConditionsComfort  
Time TempWeatherWind HumidityBarometerVisibility
3:50 pm
Tue, May 21
90 °FPartly sunny.5 mph43%29.94 "Hg10 mi
2:50 pm90 °FPartly sunny.No wind46%29.97 "Hg10 mi
1:50 pm88 °FScattered clouds.No wind46%29.97 "Hg10 mi
12:50 pm88 °FScattered clouds.3 mph49%29.99 "Hg10 mi
11:50 am84 °FScattered clouds.No wind62%29.99 "Hg10 mi
10:50 am82 °FScattered clouds.5 mph66%30.00 "Hg10 mi
9:50 am81 °FPassing clouds.6 mph70%30.00 "Hg10 mi
8:50 am77 °FSunny.6 mph83%30.00 "Hg10 mi
7:50 am73 °FSunny.No wind89%29.98 "Hg10 mi
6:45 am72 °FSunny.No wind88%29.97 "Hg10 mi
6:35 am70 °FSunny.No wind94%29.97 "Hg10 mi
5:55 am72 °FClear.3 mph88%29.96 "Hg10 mi
5:15 am72 °FClear.No wind88%29.96 "Hg10 mi
4:55 am72 °FClear.No wind88%29.96 "Hg10 mi
3:55 am72 °FClear.3 mph88%29.96 "Hg10 mi
12:55 am73 °FClear.6 mph83%30.00 "Hg10 mi
12:35 am73 °FClear.7 mph83%30.00 "Hg10 mi
11:55 pm
Mon, May 20
75 °FClear.6 mph78%30.01 "Hg10 mi
11:15 pm77 °FPassing clouds.No wind74%30.01 "Hg10 mi
9:50 pm81 °FClear.9 mph66%29.98 "Hg10 mi
8:50 pm81 °FPassing clouds.13 mph62%29.95 "Hg10 mi
7:50 pm84 °FPassing clouds.12 mph58%29.95 "Hg10 mi
6:50 pm90 °FScattered clouds.7 mph38%29.94 "Hg10 mi
5:50 pm91 °FScattered clouds.6 mph36%29.95 "Hg10 mi
Weather by CustomWeather, © 2019

See weather overview